����������;��������(kWh)
2017-07-03 00:00;97,2
2017-07-03 00:15;99,2
2017-07-03 00:30;96,25
2017-07-03 00:45;98,65
2017-07-03 01:00;106,25
2017-07-03 01:15;112,5
2017-07-03 01:30;108,85
2017-07-03 01:45;110,65
2017-07-03 02:00;102,9
2017-07-03 02:15;101,95
2017-07-03 02:30;101,45
2017-07-03 02:45;98,35
2017-07-03 03:00;97,9
2017-07-03 03:15;98,8
2017-07-03 03:30;95,9
2017-07-03 03:45;98
2017-07-03 04:00;98,1
2017-07-03 04:15;96,6
2017-07-03 04:30;94,1
2017-07-03 04:45;96,8
2017-07-03 05:00;97,5
2017-07-03 05:15;97,6
2017-07-03 05:30;97,8
2017-07-03 05:45;96,1
2017-07-03 06:00;99,4
2017-07-03 06:15;95,05
2017-07-03 06:30;95,7
2017-07-03 06:45;97,9
2017-07-03 07:00;102,2
2017-07-03 07:15;108,55
2017-07-03 07:30;111,8
2017-07-03 07:45;122,55
2017-07-03 08:00;130,4
2017-07-03 08:15;134,7
2017-07-03 08:30;149,7
2017-07-03 08:45;168,4
2017-07-03 09:00;208,3
2017-07-03 09:15;266,95
2017-07-03 09:30;275,55
2017-07-03 09:45;280,55
2017-07-03 10:00;247,2
2017-07-03 10:15;260,15
2017-07-03 10:30;267,65
2017-07-03 10:45;274,55
2017-07-03 11:00;276,35
2017-07-03 11:15;277,35
2017-07-03 11:30;289,4
2017-07-03 11:45;275,4
2017-07-03 12:00;280,15
2017-07-03 12:15;290,95
2017-07-03 12:30;290,15
2017-07-03 12:45;346,75
2017-07-03 13:00;353,15
2017-07-03 13:15;311,9
2017-07-03 13:30;307,5
2017-07-03 13:45;303,3
2017-07-03 14:00;294,15
2017-07-03 14:15;291,9
2017-07-03 14:30;292,15
2017-07-03 14:45;290,75
2017-07-03 15:00;273,15
2017-07-03 15:15;275,4
2017-07-03 15:30;267,7
2017-07-03 15:45;259,35
2017-07-03 16:00;252,2
2017-07-03 16:15;248,3
2017-07-03 16:30;235,75
2017-07-03 16:45;216,45
2017-07-03 17:00;225,65
2017-07-03 17:15;217,05
2017-07-03 17:30;198,25
2017-07-03 17:45;218,55
2017-07-03 18:00;208,55
2017-07-03 18:15;195,4
2017-07-03 18:30;202,65
2017-07-03 18:45;192
2017-07-03 19:00;181,15
2017-07-03 19:15;165
2017-07-03 19:30;157,95
2017-07-03 19:45;151,95
2017-07-03 20:00;143,25
2017-07-03 20:15;137,9
2017-07-03 20:30;135,45
2017-07-03 20:45;134,8
2017-07-03 21:00;142,5
2017-07-03 21:15;137,8
2017-07-03 21:30;137,5
2017-07-03 21:45;130,3
2017-07-03 22:00;123,7
2017-07-03 22:15;122,8
2017-07-03 22:30;120,85
2017-07-03 22:45;122,65
2017-07-03 23:00;121,75
2017-07-03 23:15;118,9
2017-07-03 23:30;119,45
2017-07-03 23:45;114,05
2017-07-04 00:00;115,85
2017-07-04 00:15;114,3
2017-07-04 00:30;113,45
2017-07-04 00:45;112,65
2017-07-04 01:00;110,95
2017-07-04 01:15;104,95
2017-07-04 01:30;101,9
2017-07-04 01:45;103,4
2017-07-04 02:00;105,05
2017-07-04 02:15;103,35
2017-07-04 02:30;104,7
2017-07-04 02:45;97,75
2017-07-04 03:00;93,05
2017-07-04 03:15;91,4
2017-07-04 03:30;90,65
2017-07-04 03:45;93,2
2017-07-04 04:00;91,15
2017-07-04 04:15;91,5
2017-07-04 04:30;92,1
2017-07-04 04:45;91,05
2017-07-04 05:00;90,75
2017-07-04 05:15;93,55
2017-07-04 05:30;91,6
2017-07-04 05:45;91,95
2017-07-04 06:00;92,8
2017-07-04 06:15;95,3
2017-07-04 06:30;93,75
2017-07-04 06:45;102,2
2017-07-04 07:00;106,85
2017-07-04 07:15;111,15
2017-07-04 07:30;164
2017-07-04 07:45;131,55
2017-07-04 08:00;127,25
2017-07-04 08:15;134,65
2017-07-04 08:30;135,9
2017-07-04 08:45;147,45
2017-07-04 09:00;164,4
2017-07-04 09:15;169,15
2017-07-04 09:30;187,85
2017-07-04 09:45;219,25
2017-07-04 10:00;208,6
2017-07-04 10:15;226,85
2017-07-04 10:30;283,95
2017-07-04 10:45;292
2017-07-04 11:00;280,55
2017-07-04 11:15;300,9
2017-07-04 11:30;283,35
2017-07-04 11:45;272,8
2017-07-04 12:00;274,25
2017-07-04 12:15;274,75
2017-07-04 12:30;293,5
2017-07-04 12:45;324,55
2017-07-04 13:00;305,25
2017-07-04 13:15;286,8
2017-07-04 13:30;284,6
2017-07-04 13:45;275,6
2017-07-04 14:00;271,9
2017-07-04 14:15;270,1
2017-07-04 14:30;266,5
2017-07-04 14:45;256,2
2017-07-04 15:00;242,35
2017-07-04 15:15;285,8
2017-07-04 15:30;278,4
2017-07-04 15:45;235,9
2017-07-04 16:00;230,65
2017-07-04 16:15;206,3
2017-07-04 16:30;200,95
2017-07-04 16:45;208,6
2017-07-04 17:00;199,05
2017-07-04 17:15;193,9
2017-07-04 17:30;193,65
2017-07-04 17:45;187,7
2017-07-04 18:00;178,5
2017-07-04 18:15;183,7
2017-07-04 18:30;171,25
2017-07-04 18:45;174,7
2017-07-04 19:00;164
2017-07-04 19:15;159,25
2017-07-04 19:30;158,4
2017-07-04 19:45;159,55
2017-07-04 20:00;144,15
2017-07-04 20:15;136,25
2017-07-04 20:30;137,5
2017-07-04 20:45;136,4
2017-07-04 21:00;129,4
2017-07-04 21:15;134,75
2017-07-04 21:30;128,45
2017-07-04 21:45;125,9
2017-07-04 22:00;120,35
2017-07-04 22:15;121,95
2017-07-04 22:30;120,3
2017-07-04 22:45;118,85
2017-07-04 23:00;112,1
2017-07-04 23:15;115
2017-07-04 23:30;110,8
2017-07-04 23:45;109,1
2017-07-05 00:00;103,1
2017-07-05 00:15;98,05
2017-07-05 00:30;102,35
2017-07-05 00:45;99,75
2017-07-05 01:00;95,2
2017-07-05 01:15;97,75
2017-07-05 01:30;98,15
2017-07-05 01:45;94,2
2017-07-05 02:00;97,3
2017-07-05 02:15;97,1
2017-07-05 02:30;99,45
2017-07-05 02:45;91,6
2017-07-05 03:00;98
2017-07-05 03:15;96,95
2017-07-05 03:30;92,2
2017-07-05 03:45;97,75
2017-07-05 04:00;97,35
2017-07-05 04:15;99,8
2017-07-05 04:30;94,5
2017-07-05 04:45;97,7
2017-07-05 05:00;97,4
2017-07-05 05:15;97,25
2017-07-05 05:30;96,4
2017-07-05 05:45;99,55
2017-07-05 06:00;99,3
2017-07-05 06:15;94,5
2017-07-05 06:30;96,4
2017-07-05 06:45;109,3
2017-07-05 07:00;108,05
2017-07-05 07:15;112,05
2017-07-05 07:30;120,7
2017-07-05 07:45;159
2017-07-05 08:00;159,05
2017-07-05 08:15;160,65
2017-07-05 08:30;160,6
2017-07-05 08:45;163,75
2017-07-05 09:00;179,05
2017-07-05 09:15;194,9
2017-07-05 09:30;199,1
2017-07-05 09:45;203,5
2017-07-05 10:00;199,8
2017-07-05 10:15;256,8
2017-07-05 10:30;263
2017-07-05 10:45;237,55
2017-07-05 11:00;246,15
2017-07-05 11:15;243,75
2017-07-05 11:30;226,8
2017-07-05 11:45;232,3
2017-07-05 12:00;236,3
2017-07-05 12:15;233,55
2017-07-05 12:30;239,5
2017-07-05 12:45;234,2
2017-07-05 13:00;236,25
2017-07-05 13:15;238,2
2017-07-05 13:30;235,25
2017-07-05 13:45;221,65
2017-07-05 14:00;224,35
2017-07-05 14:15;233,85
2017-07-05 14:30;279
2017-07-05 14:45;265,05
2017-07-05 15:00;220,65
2017-07-05 15:15;223,35
2017-07-05 15:30;219,95
2017-07-05 15:45;211,4
2017-07-05 16:00;207,8
2017-07-05 16:15;204,25
2017-07-05 16:30;175,75
2017-07-05 16:45;172,9
2017-07-05 17:00;173,7
2017-07-05 17:15;171,15
2017-07-05 17:30;189,85
2017-07-05 17:45;219,7
2017-07-05 18:00;176,25
2017-07-05 18:15;180,15
2017-07-05 18:30;175,95
2017-07-05 18:45;154,15
2017-07-05 19:00;150,15
2017-07-05 19:15;140,1
2017-07-05 19:30;136,55
2017-07-05 19:45;130,95
2017-07-05 20:00;126,9
2017-07-05 20:15;126
2017-07-05 20:30;121,7
2017-07-05 20:45;123,2
2017-07-05 21:00;126,45
2017-07-05 21:15;119,3
2017-07-05 21:30;116,5
2017-07-05 21:45;112,6
2017-07-05 22:00;106,5
2017-07-05 22:15;103,05
2017-07-05 22:30;104,3
2017-07-05 22:45;100,7
2017-07-05 23:00;100,55
2017-07-05 23:15;96,65
2017-07-05 23:30;95,15
2017-07-05 23:45;93,95
2017-07-06 00:00;95,4
2017-07-06 00:15;96,85
2017-07-06 00:30;94,55
2017-07-06 00:45;93,45
2017-07-06 01:00;94,3
2017-07-06 01:15;96,6
2017-07-06 01:30;93,65
2017-07-06 01:45;92,4
2017-07-06 02:00;91,6
2017-07-06 02:15;93,35
2017-07-06 02:30;91,3
2017-07-06 02:45;90
2017-07-06 03:00;92,05
2017-07-06 03:15;91,7
2017-07-06 03:30;91,2
2017-07-06 03:45;92,3
2017-07-06 04:00;93,1
2017-07-06 04:15;92,3
2017-07-06 04:30;92,5
2017-07-06 04:45;92,9
2017-07-06 05:00;92,2
2017-07-06 05:15;94
2017-07-06 05:30;92,55
2017-07-06 05:45;94,7
2017-07-06 06:00;94,4
2017-07-06 06:15;95,05
2017-07-06 06:30;95,2
2017-07-06 06:45;107
2017-07-06 07:00;107,8
2017-07-06 07:15;107,55
2017-07-06 07:30;170,95
2017-07-06 07:45;181,75
2017-07-06 08:00;177,75
2017-07-06 08:15;147,85
2017-07-06 08:30;158,8
2017-07-06 08:45;162,3
2017-07-06 09:00;197,15
2017-07-06 09:15;199,3
2017-07-06 09:30;204
2017-07-06 09:45;214,65
2017-07-06 10:00;209,15
2017-07-06 10:15;217,45
2017-07-06 10:30;218,1
2017-07-06 10:45;208,35
2017-07-06 11:00;215,45
2017-07-06 11:15;225,85
2017-07-06 11:30;227,95
2017-07-06 11:45;234,15
2017-07-06 12:00;237,9
2017-07-06 12:15;268,85
2017-07-06 12:30;278,8
2017-07-06 12:45;235,3
2017-07-06 13:00;245,15
2017-07-06 13:15;248,6
2017-07-06 13:30;241,5
2017-07-06 13:45;243,85
2017-07-06 14:00;252,15
2017-07-06 14:15;246,75
2017-07-06 14:30;226,2
2017-07-06 14:45;221,7
2017-07-06 15:00;220,9
2017-07-06 15:15;213,6
2017-07-06 15:30;200,05
2017-07-06 15:45;188,75
2017-07-06 16:00;188,95
2017-07-06 16:15;175,5
2017-07-06 16:30;166,45
2017-07-06 16:45;170,5
2017-07-06 17:00;164,05
2017-07-06 17:15;159,3
2017-07-06 17:30;157,3
2017-07-06 17:45;163,95
2017-07-06 18:00;158,4
2017-07-06 18:15;154,6
2017-07-06 18:30;147,85
2017-07-06 18:45;149,25
2017-07-06 19:00;137,6
2017-07-06 19:15;128,35
2017-07-06 19:30;128,5
2017-07-06 19:45;125,75
2017-07-06 20:00;118,65
2017-07-06 20:15;116,55
2017-07-06 20:30;119,05
2017-07-06 20:45;122,6
2017-07-06 21:00;117,5
2017-07-06 21:15;117,9
2017-07-06 21:30;119
2017-07-06 21:45;116,15
2017-07-06 22:00;111,65
2017-07-06 22:15;109,5
2017-07-06 22:30;114,35
2017-07-06 22:45;112,35
2017-07-06 23:00;110,6
2017-07-06 23:15;109,75
2017-07-06 23:30;108,9
2017-07-06 23:45;108,05
2017-07-07 00:00;108,6
2017-07-07 00:15;107,3
2017-07-07 00:30;108
2017-07-07 00:45;105,3
2017-07-07 01:00;97,25
2017-07-07 01:15;94,65
2017-07-07 01:30;93,2
2017-07-07 01:45;92,55
2017-07-07 02:00;92,65
2017-07-07 02:15;92,65
2017-07-07 02:30;91,95
2017-07-07 02:45;93,7
2017-07-07 03:00;94,7
2017-07-07 03:15;95,4
2017-07-07 03:30;96,5
2017-07-07 03:45;95,9
2017-07-07 04:00;94,95
2017-07-07 04:15;95,9
2017-07-07 04:30;95,25
2017-07-07 04:45;96,6
2017-07-07 05:00;96,05
2017-07-07 05:15;97,05
2017-07-07 05:30;97,8
2017-07-07 05:45;94,3
2017-07-07 06:00;94,75
2017-07-07 06:15;93,65
2017-07-07 06:30;89,7
2017-07-07 06:45;90,6
2017-07-07 07:00;105
2017-07-07 07:15;108,55
2017-07-07 07:30;161,2
2017-07-07 07:45;122
2017-07-07 08:00;125,5
2017-07-07 08:15;134,35
2017-07-07 08:30;149,95
2017-07-07 08:45;187
2017-07-07 09:00;193,8
2017-07-07 09:15;182,65
2017-07-07 09:30;199,65
2017-07-07 09:45;198,65
2017-07-07 10:00;194,6
2017-07-07 10:15;206,1
2017-07-07 10:30;205,8
2017-07-07 10:45;232,95
2017-07-07 11:00;223,2
2017-07-07 11:15;230,2
2017-07-07 11:30;251,85
2017-07-07 11:45;246,8
2017-07-07 12:00;251,55
2017-07-07 12:15;241,15
2017-07-07 12:30;241,05
2017-07-07 12:45;233,7
2017-07-07 13:00;241,95
2017-07-07 13:15;234
2017-07-07 13:30;228,7
2017-07-07 13:45;233,9
2017-07-07 14:00;236,2
2017-07-07 14:15;233,75
2017-07-07 14:30;225,85
2017-07-07 14:45;221,45
2017-07-07 15:00;220,7
2017-07-07 15:15;210,45
2017-07-07 15:30;209,2
2017-07-07 15:45;198,1
2017-07-07 16:00;193,65
2017-07-07 16:15;177,35
2017-07-07 16:30;177,7
2017-07-07 16:45;182,2
2017-07-07 17:00;173,8
2017-07-07 17:15;172,8
2017-07-07 17:30;173,7
2017-07-07 17:45;172,55
2017-07-07 18:00;173,3
2017-07-07 18:15;171,3
2017-07-07 18:30;165,1
2017-07-07 18:45;154,1
2017-07-07 19:00;145,4
2017-07-07 19:15;139,55
2017-07-07 19:30;134,55
2017-07-07 19:45;130,55
2017-07-07 20:00;120,6
2017-07-07 20:15;123,75
2017-07-07 20:30;119,3
2017-07-07 20:45;124,55
2017-07-07 21:00;121,5
2017-07-07 21:15;123,2
2017-07-07 21:30;122,45
2017-07-07 21:45;119,05
2017-07-07 22:00;116,3
2017-07-07 22:15;112,85
2017-07-07 22:30;111,55
2017-07-07 22:45;108,75
2017-07-07 23:00;107,35
2017-07-07 23:15;108,4
2017-07-07 23:30;107,2
2017-07-07 23:45;107,95
2017-07-08 00:00;102,5
2017-07-08 00:15;103,7
2017-07-08 00:30;85,7
2017-07-08 00:45;102,45
2017-07-08 01:00;99,5
2017-07-08 01:15;96,7
2017-07-08 01:30;90,2
2017-07-08 01:45;86,4
2017-07-08 02:00;84,55
2017-07-08 02:15;86,45
2017-07-08 02:30;85,9
2017-07-08 02:45;86,7
2017-07-08 03:00;88,1
2017-07-08 03:15;84,8
2017-07-08 03:30;85,7
2017-07-08 03:45;86,45
2017-07-08 04:00;86,05
2017-07-08 04:15;86,3
2017-07-08 04:30;81,95
2017-07-08 04:45;81,75
2017-07-08 05:00;83,6
2017-07-08 05:15;80,9
2017-07-08 05:30;80,35
2017-07-08 05:45;81,5
2017-07-08 06:00;79,6
2017-07-08 06:15;79,8
2017-07-08 06:30;77,55
2017-07-08 06:45;75,5
2017-07-08 07:00;74,8
2017-07-08 07:15;75,7
2017-07-08 07:30;76,2
2017-07-08 07:45;77,2
2017-07-08 08:00;78,3
2017-07-08 08:15;76,25
2017-07-08 08:30;76,55
2017-07-08 08:45;76,15
2017-07-08 09:00;82,65
2017-07-08 09:15;85,25
2017-07-08 09:30;86,45
2017-07-08 09:45;91,2
2017-07-08 10:00;77,7
2017-07-08 10:15;78,2
2017-07-08 10:30;77,35
2017-07-08 10:45;77,05
2017-07-08 11:00;76,7
2017-07-08 11:15;76,7
2017-07-08 11:30;77,5
2017-07-08 11:45;77,65
2017-07-08 12:00;76,6
2017-07-08 12:15;75
2017-07-08 12:30;79,9
2017-07-08 12:45;79
2017-07-08 13:00;82,5
2017-07-08 13:15;81,3
2017-07-08 13:30;82,55
2017-07-08 13:45;86,7
2017-07-08 14:00;82,85
2017-07-08 14:15;83,55
2017-07-08 14:30;85,4
2017-07-08 14:45;84,1
2017-07-08 15:00;85,05
2017-07-08 15:15;86,2
2017-07-08 15:30;84,6
2017-07-08 15:45;87,55
2017-07-08 16:00;85,5
2017-07-08 16:15;84,4
2017-07-08 16:30;85
2017-07-08 16:45;85
2017-07-08 17:00;84,15
2017-07-08 17:15;85,6
2017-07-08 17:30;82,9
2017-07-08 17:45;84,7
2017-07-08 18:00;86,35
2017-07-08 18:15;85,3
2017-07-08 18:30;88,7
2017-07-08 18:45;90,8
2017-07-08 19:00;89,75
2017-07-08 19:15;90,05
2017-07-08 19:30;90,25
2017-07-08 19:45;91,45
2017-07-08 20:00;86,3
2017-07-08 20:15;84,2
2017-07-08 20:30;86
2017-07-08 20:45;84,05
2017-07-08 21:00;91,6
2017-07-08 21:15;90,5
2017-07-08 21:30;91,85
2017-07-08 21:45;90,1
2017-07-08 22:00;91,2
2017-07-08 22:15;89,85
2017-07-08 22:30;91,8
2017-07-08 22:45;91,1
2017-07-08 23:00;90,9
2017-07-08 23:15;89,45
2017-07-08 23:30;86,6
2017-07-08 23:45;85,4
2017-07-09 00:00;87,05
2017-07-09 00:15;84
2017-07-09 00:30;84,85
2017-07-09 00:45;83,2
2017-07-09 01:00;84,1
2017-07-09 01:15;86,65
2017-07-09 01:30;86,4
2017-07-09 01:45;85,55
2017-07-09 02:00;85,6
2017-07-09 02:15;84,75
2017-07-09 02:30;87,9
2017-07-09 02:45;85,85
2017-07-09 03:00;86,2
2017-07-09 03:15;86,4
2017-07-09 03:30;86,3
2017-07-09 03:45;87,2
2017-07-09 04:00;85,75
2017-07-09 04:15;81,15
2017-07-09 04:30;82,5
2017-07-09 04:45;82,45
2017-07-09 05:00;83,35
2017-07-09 05:15;82,55
2017-07-09 05:30;79,55
2017-07-09 05:45;82,95
2017-07-09 06:00;81,1
2017-07-09 06:15;77,2
2017-07-09 06:30;77,3
2017-07-09 06:45;74,7
2017-07-09 07:00;75,7
2017-07-09 07:15;75
2017-07-09 07:30;75,45
2017-07-09 07:45;77,95
2017-07-09 08:00;76,55
2017-07-09 08:15;78,5
2017-07-09 08:30;76,6
2017-07-09 08:45;81
2017-07-09 09:00;83,2
2017-07-09 09:15;86,2
2017-07-09 09:30;89,35
2017-07-09 09:45;94
2017-07-09 10:00;77,65
2017-07-09 10:15;79,35
2017-07-09 10:30;77,45
2017-07-09 10:45;78,1
2017-07-09 11:00;78,05
2017-07-09 11:15;77,9
2017-07-09 11:30;79,65
2017-07-09 11:45;78,45
2017-07-09 12:00;78,25
2017-07-09 12:15;81,5
2017-07-09 12:30;81,2
2017-07-09 12:45;80,45
2017-07-09 13:00;81,45
2017-07-09 13:15;81,3
2017-07-09 13:30;82,5
2017-07-09 13:45;81,5
2017-07-09 14:00;80,65
2017-07-09 14:15;79,9
2017-07-09 14:30;82,8
2017-07-09 14:45;83,2
2017-07-09 15:00;85,15
2017-07-09 15:15;82,4
2017-07-09 15:30;82,35
2017-07-09 15:45;83,95
2017-07-09 16:00;83,65
2017-07-09 16:15;83,15
2017-07-09 16:30;81,3
2017-07-09 16:45;83
2017-07-09 17:00;82
2017-07-09 17:15;82,95
2017-07-09 17:30;81,6
2017-07-09 17:45;83,7
2017-07-09 18:00;81,7
2017-07-09 18:15;83,55
2017-07-09 18:30;84,3
2017-07-09 18:45;90,5
2017-07-09 19:00;92,8
2017-07-09 19:15;90,1
2017-07-09 19:30;90,3
2017-07-09 19:45;91,25
2017-07-09 20:00;90,05
2017-07-09 20:15;92,9
2017-07-09 20:30;92,55
2017-07-09 20:45;91,05
2017-07-09 21:00;93,85
2017-07-09 21:15;91,6
2017-07-09 21:30;95,05
2017-07-09 21:45;94,3
2017-07-09 22:00;94,05
2017-07-09 22:15;94,6
2017-07-09 22:30;98,45
2017-07-09 22:45;96,65
2017-07-09 23:00;96,8
2017-07-09 23:15;93,35
2017-07-09 23:30;93,35
2017-07-09 23:45;91,55

